When you browse on this site, cookies collect data to enhance your experience and personalize the content and advertising you see.
Visit our Privacy Policy to learn more. By continuing to use the site, you agree to this use of cookies and data.

Hourly Weather Kyahta

Today, 10 July, Friday

Time Temperature Precipitation Wind Pressure Humidity
00:00 +24°C° 0 mm 2 mps 742 mmHg 62%
01:00 +24°C° 0 mm 2 mps 742 mmHg 64%
02:00 +23°C° 0 mm 2 mps 742 mmHg 65%
03:00 +23°C° 0 mm 1 mps 742 mmHg 69%
04:00 +23°C° 0 mm 1 mps 742 mmHg 72%
05:00 +23°C° 0 mm 2 mps 743 mmHg 75%
06:00 +24°C° 0 mm 2 mps 743 mmHg 78%
07:00 +24°C° 0 mm 3 mps 743 mmHg 78%
08:00 +25°C° 0 mm 3 mps 743 mmHg 78%
09:00 +25°C° 0 mm 4 mps 744 mmHg 78%
10:00 +25°C° 0 mm 5 mps 744 mmHg 77%
11:00 +25°C° 0 mm 5 mps 744 mmHg 77%
12:00 +25°C° 0 mm 5 mps 744 mmHg 76%
13:00 +25°C° 0.1 mm 5 mps 744 mmHg 77%
14:00 +25°C° 0.1 mm 5 mps 745 mmHg 77%
15:00 +25°C° 0.1 mm 5 mps 745 mmHg 78%
16:00 +23°C° 0.1 mm 5 mps 745 mmHg 80%
17:00 +23°C° 0.1 mm 5 mps 745 mmHg 82%
18:00 +22°C° 0.1 mm 5 mps 745 mmHg 84%
19:00 +21°C° 0 mm 5 mps 746 mmHg 87%
20:00 +20°C° 0 mm 5 mps 746 mmHg 89%
21:00 +19°C° 0 mm 5 mps 746 mmHg 92%
22:00 +19°C° 0 mm 5 mps 746 mmHg 91%
23:00 +17°C° 0 mm 5 mps 747 mmHg 90%

Tomorrow, 11 July, Saturday

Time Temperature Precipitation Wind Pressure Humidity
00:00 +17°C° 0 mm 5 mps 747 mmHg 89%
01:00 +17°C° 0 mm 5 mps 747 mmHg 87%
02:00 +17°C° 0 mm 5 mps 747 mmHg 85%
03:00 +17°C° 0 mm 5 mps 748 mmHg 83%
04:00 +17°C° 0 mm 5 mps 748 mmHg 82%
05:00 +19°C° 0 mm 5 mps 748 mmHg 81%
06:00 +19°C° 0 mm 6 mps 748 mmHg 80%
07:00 +20°C° 0 mm 6 mps 748 mmHg 77%
08:00 +21°C° 0 mm 6 mps 748 mmHg 74%
09:00 +22°C° 0 mm 6 mps 748 mmHg 70%
10:00 +23°C° 0 mm 6 mps 748 mmHg 67%
11:00 +25°C° 0 mm 5 mps 748 mmHg 63%
12:00 +26°C° 0 mm 5 mps 748 mmHg 60%
13:00 +26°C° 0 mm 5 mps 748 mmHg 59%
14:00 +26°C° 0 mm 5 mps 748 mmHg 57%
15:00 +26°C° 0 mm 6 mps 748 mmHg 56%
16:00 +26°C° 0 mm 5 mps 748 mmHg 60%
17:00 +25°C° 0 mm 4 mps 748 mmHg 63%
18:00 +25°C° 0 mm 4 mps 748 mmHg 66%
19:00 +22°C° 0 mm 4 mps 748 mmHg 70%
20:00 +20°C° 0 mm 3 mps 748 mmHg 73%
21:00 +19°C° 0 mm 3 mps 748 mmHg 77%
22:00 +18°C° 0 mm 3 mps 748 mmHg 79%
23:00 +18°C° 0 mm 3 mps 748 mmHg 82%

Day after tomorrow, 12 July, Sunday

Time Temperature Precipitation Wind Pressure Humidity
00:00 +17°C° 0 mm 3 mps 748 mmHg 84%
01:00 +17°C° 0 mm 3 mps 748 mmHg 86%
02:00 +16°C° 0 mm 3 mps 748 mmHg 87%
03:00 +16°C° 0 mm 3 mps 748 mmHg 89%
04:00 +17°C° 0 mm 3 mps 748 mmHg 86%
05:00 +18°C° 0 mm 3 mps 748 mmHg 83%
06:00 +19°C° 0 mm 3 mps 748 mmHg 80%
07:00 +20°C° 0 mm 3 mps 748 mmHg 75%
08:00 +22°C° 0 mm 3 mps 748 mmHg 70%
09:00 +23°C° 0 mm 4 mps 748 mmHg 64%
10:00 +25°C° 0 mm 3 mps 748 mmHg 60%
11:00 +26°C° 0 mm 3 mps 748 mmHg 56%
12:00 +27°C° 0 mm 3 mps 747 mmHg 52%
13:00 +28°C° 0 mm 3 mps 747 mmHg 52%
14:00 +28°C° 0 mm 3 mps 747 mmHg 52%
15:00 +28°C° 0 mm 3 mps 747 mmHg 52%
16:00 +28°C° 0 mm 3 mps 746 mmHg 57%
17:00 +27°C° 0 mm 3 mps 746 mmHg 61%
18:00 +26°C° 0 mm 3 mps 745 mmHg 66%
19:00 +25°C° 0 mm 3 mps 745 mmHg 69%
20:00 +22°C° 0 mm 3 mps 745 mmHg 72%
21:00 +21°C° 0 mm 2 mps 745 mmHg 76%
22:00 +21°C° 0 mm 2 mps 745 mmHg 77%
23:00 +20°C° 0 mm 2 mps 745 mmHg 79%

13 July, Monday

Time Temperature Precipitation Wind Pressure Humidity
00:00 +21°C° 0 mm 1 mps 744 mmHg 80%
01:00 +19°C° 0.2 mm 2 mps 744 mmHg 81%
02:00 +19°C° 0.2 mm 2 mps 744 mmHg 83%
03:00 +19°C° 0.2 mm 3 mps 744 mmHg 84%
04:00 +19°C° 0.2 mm 2 mps 744 mmHg 83%
05:00 +20°C° 0.2 mm 2 mps 744 mmHg 82%
06:00 +20°C° 0.2 mm 2 mps 744 mmHg 81%
07:00 +21°C° 0.2 mm 2 mps 744 mmHg 78%
08:00 +24°C° 0.2 mm 3 mps 743 mmHg 75%
09:00 +25°C° 0.2 mm 3 mps 743 mmHg 72%
10:00 +27°C° 0 mm 3 mps 743 mmHg 67%
11:00 +28°C° 0 mm 4 mps 743 mmHg 61%
12:00 +30°C° 0 mm 4 mps 743 mmHg 56%
13:00 +30°C° 0.2 mm 4 mps 742 mmHg 56%
14:00 +32°C° 0.2 mm 4 mps 742 mmHg 56%
15:00 +32°C° 0.2 mm 4 mps 742 mmHg 56%
16:00 +29°C° 2 mm 4 mps 741 mmHg 65%
17:00 +27°C° 2 mm 4 mps 741 mmHg 73%
18:00 +25°C° 2 mm 3 mps 741 mmHg 82%
19:00 +24°C° 0.1 mm 3 mps 741 mmHg 84%
20:00 +22°C° 0.1 mm 3 mps 741 mmHg 87%
21:00 +23°C° 0.1 mm 2 mps 741 mmHg 90%
22:00 +21°C° 0 mm 2 mps 740 mmHg 90%
23:00 +21°C° 0 mm 2 mps 740 mmHg 89%

14 July, Tuesday

Time Temperature Precipitation Wind Pressure Humidity
00:00 +20°C° 0 mm 3 mps 740 mmHg 89%
01:00 +20°C° 0.1 mm 3 mps 739 mmHg 88%
02:00 +20°C° 0.1 mm 3 mps 739 mmHg 88%
03:00 +20°C° 0.1 mm 4 mps 739 mmHg 87%
04:00 +20°C° 0 mm 4 mps 739 mmHg 85%
05:00 +21°C° 0 mm 4 mps 739 mmHg 83%
06:00 +22°C° 0 mm 5 mps 738 mmHg 81%
07:00 +25°C° 0 mm 5 mps 738 mmHg 74%
08:00 +27°C° 0 mm 5 mps 738 mmHg 66%
09:00 +29°C° 0 mm 5 mps 738 mmHg 59%
10:00 +30°C° 0 mm 6 mps 738 mmHg 56%
11:00 +32°C° 0 mm 6 mps 738 mmHg 52%
12:00 +33°C° 0 mm 6 mps 738 mmHg 49%
13:00 +34°C° 0 mm 5 mps 738 mmHg 48%
14:00 +35°C° 0 mm 4 mps 738 mmHg 46%
15:00 +35°C° 0 mm 3 mps 738 mmHg 45%
16:00 +33°C° 0.1 mm 5 mps 738 mmHg 52%
17:00 +30°C° 0.1 mm 7 mps 738 mmHg 59%
18:00 +27°C° 0.1 mm 9 mps 738 mmHg 66%
19:00 +26°C° 0 mm 7 mps 738 mmHg 66%
20:00 +26°C° 0 mm 5 mps 738 mmHg 66%
21:00 +25°C° 0 mm 4 mps 739 mmHg 66%
22:00 +24°C° 0 mm 3 mps 739 mmHg 65%
23:00 +24°C° 0 mm 3 mps 738 mmHg 64%

15 July, Wednesday

Time Temperature Precipitation Wind Pressure Humidity
00:00 +24°C° 0 mm 3 mps 738 mmHg 63%
01:00 +22°C° 0 mm 3 mps 738 mmHg 65%
02:00 +22°C° 0 mm 4 mps 738 mmHg 66%
03:00 +22°C° 0 mm 4 mps 738 mmHg 67%
04:00 +22°C° 0.1 mm 4 mps 738 mmHg 72%
05:00 +22°C° 0.1 mm 4 mps 738 mmHg 77%
06:00 +22°C° 0.1 mm 4 mps 738 mmHg 82%
07:00 +23°C° 0 mm 4 mps 738 mmHg 76%
08:00 +25°C° 0 mm 4 mps 738 mmHg 70%
09:00 +26°C° 0 mm 4 mps 738 mmHg 64%
10:00 +26°C° 0 mm 5 mps 738 mmHg 61%
11:00 +27°C° 0 mm 5 mps 739 mmHg 57%
12:00 +27°C° 0 mm 6 mps 739 mmHg 54%
13:00 +27°C° 0 mm 6 mps 739 mmHg 54%
14:00 +27°C° 0 mm 6 mps 739 mmHg 54%
15:00 +26°C° 0 mm 6 mps 739 mmHg 54%
16:00 +25°C° 0 mm 5 mps 739 mmHg 58%
17:00 +23°C° 0 mm 5 mps 739 mmHg 63%
18:00 +22°C° 0 mm 5 mps 739 mmHg 67%
19:00 +21°C° 0 mm 4 mps 739 mmHg 72%
20:00 +19°C° 0 mm 4 mps 739 mmHg 77%
21:00 +18°C° 0 mm 3 mps 739 mmHg 82%
22:00 +17°C° 0 mm 3 mps 739 mmHg 85%
23:00 +17°C° 0 mm 4 mps 739 mmHg 88%
Show more